SCP
-0 -0 -0 0 -0 -0 -0 -0 -0 -0 -0 -0 -0 0 0 0 0 0 0 0 0 0 0 0 0 0 0 0 0 0 0 0 0 0 0 0 0 0 -0 0 0 0 0 0 0 0 0
-0 -0 -0 0 -0 -0 -0 -0 -0 -0 -0 -0 -0 0 0 0 0 0 -0 0 0 0 0 0 0 0 0 0 0 0 0 0 0 0 0 0 0 0 0 0 0 0 0 0 0 0 0
-0 0 -0 -0 0 -0 -0 -0 -0 -0 -0 -0 -0 0 0 0 0 0 -0 -0 0 0 0 0 0 0 0 0 0 0 0 0 0 0 0 0 0 0 0 0 0 0 0 0 0 0 0
-0 0 -0 -0 0 0 0 -0 -0 -0 -0 0 0 0 0 0 0 -0 -0 0 0 0 0 0 0 0 0 0 0 0 0 0 0 0 0 0 0 0 0 0 0 0 0 0 0 0 0
0 0 0 0 0 0 -0 -0 -0 -0 -0 -0 0 0 0 0 -0 -0 0 0 0 0 0 0 0 0 0 0 0 0 0 0 0 0 0 0 0 0 0 0 0 0 0 0 0 0 0
0 0 -0 -0 -0 -0 -0 -0 -0 -0 -0 0 0 0 0 0 0 -0 0 0 0 0 0 0 0 0 0 0 0 0 0 0 0 0 0 0 0 0 0 0 0 0 0 0 0 0 0
-0 0 -0 -0 -0 -0 -0 -0 -0 -0 0 0 0 0 0 0 0 0 0 0 0 0 0 0 0 0 0 -0 0 0 0 0 0 0 0 0 0 0 0 0 0 0 0 0 0 0 0
0 0 0 0 -0 -0 -0 -0 -0 -0 -0 0 0 0 0 -0 0 0 0 0 0 0 0 0 0 0 0 0 0 0 0 0 0 0 0 0 0 0 0 0 0 0 0 0 0 0 0
0 0 0 0 0 0 0 0 0 0 0 0 0 0 -0 -0 0 0 0 0 0 0 0 0 0 0 0 0 0 0 0 0 0 0 0 0 0 0 0 0 0 0 0 0 0 0 0
-0 -0 0 0 0 0 0 0 0 0 0 0 0 0 0 -0 0 0 0 0 0 0 0 0 0 0 0 0 0 0 0 0 0 0 0 0 0 0 0 0 0 0 -0 0 0 0 0
-0 -0 0 0 0 0 0 0 0 0 0 0 0 0 0 0 0 0 0 0 0 0 0 0 0 0 0 0 0 0 0 0 0 0 0 0 0 0 0 0 0 0 -0 0 0 0 0
-0 -0 0 0 0 0 0 0 0 0 0 0 0 0 0 0 0 0 0 0 0 0 0 0 0 0 0 0 0 0 0 0 0 0 0 0 0 0 0 0 0 0 0 0 0 0 0
0 0 0 0 0 0 0 0 0 0 0 0 0 0 0 0 0 0 0 0 0 0 0 0 0 0 0 0 0 0 0 0 0 0 0 0 0 0 0 0 0 0 0 0 0 0 0
-0 0 0 0 0 0 0 0 0 0 0 0 0 0 0 0 0 0 0 0 0 0 0 0 0 0 0 0 0 0 0 0 0 0 0 0 0 0 0 0 0 0 0 0 0 0 0
0 0 0 0 0 0 0 0 0 0 0 0 0 0 0 0 0 0 0 0 0 0 0 0 0 0 0 0 0 0 0 0 0 0 0 0 0 0 0 0 0 -0 -0 0 0 0 0
0 0 0 0 0 0 0 0 0 0 0 0 0 0 0 0 0 0 0 0 0 0 0 0 0 0 0 0 0 0 0 0 0 0 0 0 0 0 0 0 0 -0 -0 0 0 0 0
0 0 0 0 0 0 0 0 0 0 0 0 0 0 0 0 0 0 0 0 0 0 0 0 0 0 0 0 0 0 0 0 0 0 0 0 0 0 0 0 0 0 0 0 -0 0 0
0 0 0 0 0 0 0 0 0 0 0 0 0 0 0 0 0 0 0 0 0 0 0 0 0 0 0 0 0 0 0 0 0 0 0 0 0 0 0 0 0 0 0 -0 0 0 0
0 0 0 0 0 0 0 0 0 0 0 0 0 0 0 0 0 0 0 0 0 0 0 0 0 0 0 0 0 0 0 0 0 0 0 0 0 0 0 0 0 0 0 0 0 0 0
0 0 0 0 0 0 0 0 0 0 0 0 0 0 0 0 0 0 0 0 0 0 0 0 0 0 0 0 0 0 0 0 0 0 0 0 0 0 0 0 0 0 0 0 0 0 0
0 0 0 0 0 0 0 0 0 0 0 0 0 0 0 0 0 0 0 0 0 0 0 0 0 0 0 0 0 0 0 0 0 0 0 0 0 0 0 -0 0 0 0 0 0 0 0
0 0 0 0 0 0 0 0 0 0 0 0 0 0 0 0 0 0 0 0 0 0 0 0 0 0 0 0 0 0 0 0 0 0 0 0 0 0 0 0 0 0 0 0 0 0 0
0 0 0 0 0 0 0 0 0 0 0 0 0 0 0 0 0 0 0 0 0 0 0 0 0 0 0 0 0 0 0 0 0 0 0 0 0 0 0 0 0 0 0 0 0 0 0
0 0 0 0 0 0 0 0 0 0 0 0 0 0 0 0 0 0 0 0 0 0 0 0 0 0 0 0 0 0 0 0 0 0 0 0 0 0 0 0 0 0 0 0 0 0 0
0 0 0 0 0 0 0 0 0 0 0 0 0 0 0 0 0 0 0 0 0 0 0 0 0 0 0 0 0 0 0 0 0 0 0 0 0 0 0 0 0 0 0 0 0 0 0
0 0 0 0 0 0 0 0 0 0 0 0 0 0 0 0 0 0 0 0 0 0 0 0 0 0 0 0 0 0 0 0 0 0 0 0 0 0 0 0 0 0 0 0 0 0 0
0 0 0 0 0 0 0 0 0 0 0 0 0 0 0 0 0 0 0 0 0 0 0 0 0 0 0 0 0 0 0 0 0 0 0 0 0 0 0 0 0 0 0 0 0 0 0
0 0 0 0 0 0 0 0 0 0 0 0 0 0 0 0 0 0 0 0 0 0 0 0 0 0 0 0 0 0 0 0 0 0 0 0 0 0 0 0 0 0 0 0 0 0 0
0 0 0 0 0 0 0 0 0 0 0 0 0 0 0 0 0 0 0 0 0 0 0 0 0 0 0 0 0 0 0 0 0 0 0 0 0 0 0 0 0 0 0 0 0 0 0
Wind_Speed_500mb
21 20 20 22 23 23 22 22 23 24 25 27 29 32 33 35 35 37 38 35 34 34 33 30 22 15 11 7 4 15 17 20 19 16 12 15 15 19 19 27 26 14 25 36 36 35 30
17 18 20 20 20 19 21 21 23 26 29 31 32 34 35 36 37 39 38 37 38 39 32 22 16 11 5 8 9 15 17 23 15 12 12 12 12 17 19 30 14 33 35 33 18 19 26
13 15 17 18 19 20 21 22 25 26 28 30 33 35 37 38 39 41 41 40 42 38 22 17 11 7 8 7 9 16 15 21 11 14 10 11 11 10 25 22 19 25 20 16 12 27 16
11 13 15 17 17 19 21 23 24 27 29 32 34 35 36 37 40 40 40 41 41 31 22 10 2 3 6 8 9 17 13 20 15 10 9 11 11 12 9 27 21 13 6 21 24 24 20
10 12 13 15 17 19 21 23 25 25 28 30 33 36 40 41 41 39 42 41 34 28 10 17 4 2 1 3 6 15 12 15 9 8 10 9 9 9 16 25 16 19 22 26 15 32 22
10 13 14 15 17 19 21 23 25 27 29 31 35 39 41 46 48 39 42 39 28 10 26 10 9 3 1 6 17 2 18 13 3 5 7 4 3 9 22 20 20 27 24 25 20 19 22
11 12 14 15 16 18 20 23 27 30 34 37 40 41 46 50 45 42 43 25 20 5 19 7 14 8 5 14 5 9 23 7 3 6 10 4 8 17 26 19 19 20 21 16 14 9 23
10 12 13 14 17 20 22 24 27 30 34 37 41 44 48 53 37 44 37 24 19 13 14 13 11 5 5 15 4 10 20 9 6 7 8 9 14 17 18 9 26 10 23 15 12 8 8
11 13 15 17 19 22 25 26 29 33 35 38 42 45 46 52 32 47 40 37 30 27 9 4 6 4 4 11 3 11 17 8 9 7 13 8 10 18 14 16 29 5 18 19 12 9 14
17 16 17 17 18 19 22 28 31 35 38 39 41 45 44 49 26 44 35 45 33 21 6 6 3 4 9 11 3 10 15 7 4 8 10 4 9 13 23 18 22 12 24 15 18 19 5
24 22 21 22 23 24 25 27 31 34 40 43 41 41 42 43 34 34 40 37 29 5 1 5 3 5 13 5 11 5 13 4 9 9 8 8 9 14 24 14 15 11 22 13 15 12 12
31 31 28 29 29 28 29 31 34 38 42 44 39 38 39 42 34 38 37 37 11 4 5 6 5 9 9 5 5 13 4 5 3 5 3 6 1 5 13 22 5 24 11 15 14 13 6
37 35 35 36 34 35 32 34 38 39 41 43 36 37 38 37 30 30 34 20 6 6 2 8 7 12 11 7 3 11 8 13 10 7 13 13 3 4 12 20 8 27 2 5 6 4 9
43 42 42 41 39 39 33 36 37 35 43 41 38 36 38 36 26 24 29 7 3 3 5 3 7 17 7 12 3 6 4 1 10 13 9 11 7 10 15 6 12 15 8 5 8 7 10
48 45 45 41 41 39 38 38 40 36 38 40 42 41 37 28 16 20 12 5 6 4 4 14 20 10 3 1 7 8 5 3 6 12 12 10 7 2 5 4 8 9 6 2 7 4 9
46 47 48 47 45 43 46 40 41 40 32 37 42 44 30 13 11 16 6 6 4 1 3 4 8 3 9 15 12 5 1 6 3 3 7 5 12 6 2 4 2 9 5 6 5 5 6
47 48 53 54 53 51 50 42 44 31 31 28 33 17 15 14 16 5 5 4 5 5 6 6 5 11 13 14 7 10 3 7 3 3 5 5 4 1 6 4 5 5 2 1 6 6 6
43 44 48 49 49 51 49 48 41 31 29 23 17 8 11 14 9 5 7 4 3 6 8 8 7 10 13 8 11 8 7 3 3 2 6 5 8 10 17 4 4 6 6 8 6 4 7
41 43 42 40 39 40 41 40 38 32 26 28 7 13 18 13 8 8 1 4 6 6 9 7 7 10 2 6 9 9 6 5 5 3 5 3 5 10 8 7 6 9 10 9 9 6 21
40 41 42 40 36 34 33 34 32 32 31 25 7 5 7 8 10 8 11 9 8 9 9 9 7 6 6 11 15 8 7 5 8 5 4 5 13 21 17 16 6 15 17 16 17 13 14
40 41 43 39 38 36 34 33 35 32 35 24 16 9 7 4 9 14 4 3 11 10 11 11 7 21 13 9 8 12 11 7 10 5 6 8 14 19 25 33 28 30 32 31 30 30 17
42 40 40 39 40 38 36 34 34 39 33 35 14 9 6 5 4 9 12 9 17 13 11 12 19 11 17 15 16 9 5 6 12 7 6 5 9 7 14 32 32 32 30 27 29 31 35
44 41 41 38 38 38 37 36 36 36 35 33 33 22 11 5 5 8 9 11 15 7 19 18 14 11 16 21 17 15 15 22 21 8 12 7 8 8 11 2 16 25 22 27 12 6 12
49 44 43 38 40 41 38 37 38 39 42 47 39 25 13 5 12 12 9 8 14 16 25 9 12 9 5 5 11 17 14 18 26 29 28 17 14 11 14 17 12 6 8 4 10 4 4
52 49 48 44 42 43 38 38 39 38 41 48 53 37 21 7 21 12 29 11 7 15 16 25 15 8 6 4 6 13 6 6 8 2 10 27 20 8 8 12 14 7 3 3 5 7 6
56 51 51 52 47 42 42 40 41 40 44 50 51 51 29 8 16 25 13 18 9 11 13 14 12 14 7 7 4 9 10 3 5 7 3 10 19 12 5 9 10 10 8 5 2 9 9
60 55 53 54 51 44 48 39 41 39 43 52 56 58 38 13 17 26 14 13 19 17 5 6 9 10 17 11 10 12 11 4 9 9 12 9 10 23 19 12 3 6 2 1 7 5 9
62 60 56 55 54 48 46 45 43 42 45 55 62 64 54 22 26 31 30 22 17 27 9 9 4 13 11 10 9 9 10 12 6 8 8 16 13 10 10 11 16 2 7 9 9 8 4
64 63 60 56 59 58 53 58 54 49 52 56 72 67 62 34 15 33 42 43 42 36 29 21 8 8 16 9 8 4 7 7 12 7 4 9 4 1 3 2 12 13 17 11 5 4 0
Wind_Direction_500mb
54 49 49 48 44 44 38 31 25 17 15 15 12 9 4 360 357 349 345 341 334 329 319 312 293 291 321 289 319 324 343 342 333 334 323 324 331 340 330 337 324 282 310 313 306 308 296
45 40 38 34 33 29 26 19 17 12 9 6 4 2 357 353 348 343 342 338 333 329 321 313 295 269 290 269 263 328 340 341 323 319 312 324 316 322 295 318 303 324 314 299 320 314 320
39 32 28 27 23 17 16 12 7 6 4 1 358 358 354 350 346 340 339 335 331 330 332 317 297 247 271 278 269 324 334 339 307 301 297 301 299 310 325 317 329 300 303 311 48 6 353
23 25 21 15 14 12 8 10 7 3 360 360 359 356 355 353 348 342 340 338 332 335 334 342 307 219 272 227 295 322 335 332 318 307 297 303 313 300 291 299 267 274 248 352 26 7 346
6 9 10 9 3 5 6 3 3 2 2 0 360 358 355 356 353 349 346 343 335 337 38 345 334 162 150 280 328 318 326 328 297 315 325 324 337 298 300 330 327 2 334 0 2 28 341
354 354 354 1 359 358 1 359 360 358 359 359 0 360 356 355 350 350 350 345 341 8 1 43 55 274 73 347 319 314 337 343 266 285 312 323 266 295 0 358 350 327 330 339 11 10 39
346 348 347 349 349 349 354 357 358 356 356 358 357 357 355 354 353 352 359 2 351 2 349 2 310 281 322 332 338 346 345 338 295 261 340 28 343 10 351 345 329 304 301 356 45 351 65
347 348 348 348 346 347 349 354 354 355 354 355 355 353 353 353 358 359 2 41 22 317 316 337 5 23 334 353 306 352 355 305 286 335 327 218 37 1 340 329 319 325 314 21 115 343 345
329 336 346 353 355 353 348 347 348 351 352 349 349 351 350 351 352 358 4 10 359 346 271 332 14 20 334 357 350 337 3 325 322 324 3 11 15 330 351 358 348 358 351 331 318 300 256
304 316 324 336 341 347 348 344 345 346 346 345 344 347 348 352 356 350 351 345 349 348 256 59 50 337 346 336 191 343 1 355 261 333 350 30 337 337 349 16 353 305 353 309 299 285 353
289 298 306 313 317 325 331 335 339 339 338 338 335 342 345 350 345 347 338 339 341 24 110 45 62 325 340 349 321 337 352 332 332 336 295 14 344 356 360 2 341 339 331 309 304 298 319
279 282 289 297 304 311 317 322 327 329 336 336 331 338 343 345 343 344 343 338 345 250 311 14 324 351 327 29 29 330 343 21 320 277 281 13 348 327 337 318 276 311 295 274 279 287 272
269 274 279 284 293 300 311 313 317 325 334 334 335 333 336 340 335 341 343 342 309 345 96 16 340 342 327 340 69 14 10 37 12 334 357 336 95 93 352 328 217 6 254 281 275 283 322
267 269 272 270 280 289 293 300 308 313 323 326 332 331 329 332 335 346 348 272 350 59 11 11 289 301 304 349 80 354 307 348 53 348 311 332 312 18 19 37 315 335 358 322 297 303 344
265 265 267 268 282 278 284 295 301 304 309 318 328 331 324 327 339 354 341 308 312 20 357 332 308 283 185 199 310 315 20 35 45 9 349 329 317 115 28 334 336 354 17 355 284 250 291
259 260 266 272 270 277 280 286 290 285 295 313 327 329 308 312 331 346 280 283 306 351 310 286 300 356 311 342 311 295 225 92 135 356 335 24 290 162 52 242 232 346 336 239 197 277 279
259 261 260 263 269 270 270 279 287 283 290 307 323 329 293 309 329 302 267 278 285 244 228 233 285 284 287 313 296 303 320 135 185 169 277 299 240 261 206 198 322 204 341 280 287 283 299
265 265 266 267 267 267 267 266 275 285 276 291 301 260 284 301 303 262 241 195 281 236 214 244 278 283 278 305 279 280 289 356 130 263 296 34 306 278 296 36 261 276 304 303 291 167 250
270 269 269 269 272 271 267 263 267 271 272 276 243 265 276 278 259 225 172 247 260 242 245 207 230 223 251 268 277 245 246 132 157 230 328 95 234 296 176 172 166 234 223 271 276 294 251
275 272 268 266 265 268 270 260 252 262 261 266 227 277 252 205 227 295 267 246 240 218 239 232 268 233 217 249 234 281 261 168 194 231 278 267 254 245 268 320 344 268 245 227 256 260 268
274 270 269 267 264 263 263 261 246 251 258 236 206 237 251 225 213 234 284 356 239 233 220 217 223 232 219 266 241 234 250 250 206 231 225 237 256 258 269 282 283 271 265 264 253 240 264
274 271 267 267 268 265 263 259 248 239 248 230 207 211 202 324 255 146 166 232 254 238 223 221 233 256 225 238 250 296 264 216 267 166 238 225 276 306 279 261 262 275 266 253 247 254 254
274 269 262 262 269 267 261 259 248 235 234 231 229 229 231 219 188 212 210 211 243 215 240 253 229 234 229 245 265 274 269 277 273 258 226 250 274 293 280 67 295 273 272 240 246 329 300
271 268 261 257 261 271 264 255 250 232 234 233 239 226 195 240 200 218 252 215 247 230 279 277 232 225 225 208 300 280 249 255 257 243 236 246 237 257 277 290 240 74 27 288 227 128 149
268 266 260 253 253 262 264 255 255 235 239 236 234 220 195 220 202 256 241 228 265 282 258 260 231 215 216 13 297 311 236 242 199 175 248 234 235 260 256 247 299 185 159 119 225 168 182
261 262 259 250 248 250 259 256 253 250 238 238 237 236 217 166 228 228 196 209 208 225 253 238 240 221 197 215 193 237 235 266 229 179 62 206 228 224 187 261 264 59 111 24 5 238 137
257 258 257 251 248 247 248 258 253 251 226 238 237 239 219 216 242 207 199 203 187 175 240 264 197 184 193 212 222 229 237 150 225 230 171 155 198 219 231 256 185 92 61 59 235 69 120
257 256 255 251 243 238 244 253 252 244 233 229 240 243 232 221 238 223 217 198 181 183 186 166 135 219 183 190 221 195 225 204 228 227 187 191 190 198 213 237 255 96 150 219 99 112 135
256 255 253 250 244 237 237 241 246 247 239 233 235 239 232 227 251 226 226 231 228 219 209 203 229 194 188 198 205 200 212 212 230 234 177 209 273 188 298 355 97 69 88 100 93 135 46
Wind_Speed_850mb
21 20 20 22 23 23 22 22 23 24 25 27 29 32 33 35 35 37 38 35 34 34 33 30 22 15 11 7 4 15 17 20 19 16 12 15 15 19 19 27 26 14 25 36 36 35 30
17 18 20 20 20 19 21 21 23 26 29 31 32 34 35 36 37 39 38 37 38 39 32 22 16 11 5 8 9 15 17 23 15 12 12 12 12 17 19 30 14 33 35 33 18 19 26
13 15 17 18 19 20 21 22 25 26 28 30 33 35 37 38 39 41 41 40 42 38 22 17 11 7 8 7 9 16 15 21 11 14 10 11 11 10 25 22 19 25 20 16 12 27 16
11 13 15 17 17 19 21 23 24 27 29 32 34 35 36 37 40 40 40 41 41 31 22 10 2 3 6 8 9 17 13 20 15 10 9 11 11 12 9 27 21 13 6 21 24 24 20
10 12 13 15 17 19 21 23 25 25 28 30 33 36 40 41 41 39 42 41 34 28 10 17 4 2 1 3 6 15 12 15 9 8 10 9 9 9 16 25 16 19 22 26 15 32 22
10 13 14 15 17 19 21 23 25 27 29 31 35 39 41 46 48 39 42 39 28 10 26 10 9 3 1 6 17 2 18 13 3 5 7 4 3 9 22 20 20 27 24 25 20 19 22
11 12 14 15 16 18 20 23 27 30 34 37 40 41 46 50 45 42 43 25 20 5 19 7 14 8 5 14 5 9 23 7 3 6 10 4 8 17 26 19 19 20 21 16 14 9 23
10 12 13 14 17 20 22 24 27 30 34 37 41 44 48 53 37 44 37 24 19 13 14 13 11 5 5 15 4 10 20 9 6 7 8 9 14 17 18 9 26 10 23 15 12 8 8
11 13 15 17 19 22 25 26 29 33 35 38 42 45 46 52 32 47 40 37 30 27 9 4 6 4 4 11 3 11 17 8 9 7 13 8 10 18 14 16 29 5 18 19 12 9 14
17 16 17 17 18 19 22 28 31 35 38 39 41 45 44 49 26 44 35 45 33 21 6 6 3 4 9 11 3 10 15 7 4 8 10 4 9 13 23 18 22 12 24 15 18 19 5
24 22 21 22 23 24 25 27 31 34 40 43 41 41 42 43 34 34 40 37 29 5 1 5 3 5 13 5 11 5 13 4 9 9 8 8 9 14 24 14 15 11 22 13 15 12 12
31 31 28 29 29 28 29 31 34 38 42 44 39 38 39 42 34 38 37 37 11 4 5 6 5 9 9 5 5 13 4 5 3 5 3 6 1 5 13 22 5 24 11 15 14 13 6
37 35 35 36 34 35 32 34 38 39 41 43 36 37 38 37 30 30 34 20 6 6 2 8 7 12 11 7 3 11 8 13 10 7 13 13 3 4 12 20 8 27 2 5 6 4 9
43 42 42 41 39 39 33 36 37 35 43 41 38 36 38 36 26 24 29 7 3 3 5 3 7 17 7 12 3 6 4 1 10 13 9 11 7 10 15 6 12 15 8 5 8 7 10
48 45 45 41 41 39 38 38 40 36 38 40 42 41 37 28 16 20 12 5 6 4 4 14 20 10 3 1 7 8 5 3 6 12 12 10 7 2 5 4 8 9 6 2 7 4 9
46 47 48 47 45 43 46 40 41 40 32 37 42 44 30 13 11 16 6 6 4 1 3 4 8 3 9 15 12 5 1 6 3 3 7 5 12 6 2 4 2 9 5 6 5 5 6
47 48 53 54 53 51 50 42 44 31 31 28 33 17 15 14 16 5 5 4 5 5 6 6 5 11 13 14 7 10 3 7 3 3 5 5 4 1 6 4 5 5 2 1 6 6 6
43 44 48 49 49 51 49 48 41 31 29 23 17 8 11 14 9 5 7 4 3 6 8 8 7 10 13 8 11 8 7 3 3 2 6 5 8 10 17 4 4 6 6 8 6 4 7
41 43 42 40 39 40 41 40 38 32 26 28 7 13 18 13 8 8 1 4 6 6 9 7 7 10 2 6 9 9 6 5 5 3 5 3 5 10 8 7 6 9 10 9 9 6 21
40 41 42 40 36 34 33 34 32 32 31 25 7 5 7 8 10 8 11 9 8 9 9 9 7 6 6 11 15 8 7 5 8 5 4 5 13 21 17 16 6 15 17 16 17 13 14
40 41 43 39 38 36 34 33 35 32 35 24 16 9 7 4 9 14 4 3 11 10 11 11 7 21 13 9 8 12 11 7 10 5 6 8 14 19 25 33 28 30 32 31 30 30 17
42 40 40 39 40 38 36 34 34 39 33 35 14 9 6 5 4 9 12 9 17 13 11 12 19 11 17 15 16 9 5 6 12 7 6 5 9 7 14 32 32 32 30 27 29 31 35
44 41 41 38 38 38 37 36 36 36 35 33 33 22 11 5 5 8 9 11 15 7 19 18 14 11 16 21 17 15 15 22 21 8 12 7 8 8 11 2 16 25 22 27 12 6 12
49 44 43 38 40 41 38 37 38 39 42 47 39 25 13 5 12 12 9 8 14 16 25 9 12 9 5 5 11 17 14 18 26 29 28 17 14 11 14 17 12 6 8 4 10 4 4
52 49 48 44 42 43 38 38 39 38 41 48 53 37 21 7 21 12 29 11 7 15 16 25 15 8 6 4 6 13 6 6 8 2 10 27 20 8 8 12 14 7 3 3 5 7 6
56 51 51 52 47 42 42 40 41 40 44 50 51 51 29 8 16 25 13 18 9 11 13 14 12 14 7 7 4 9 10 3 5 7 3 10 19 12 5 9 10 10 8 5 2 9 9
60 55 53 54 51 44 48 39 41 39 43 52 56 58 38 13 17 26 14 13 19 17 5 6 9 10 17 11 10 12 11 4 9 9 12 9 10 23 19 12 3 6 2 1 7 5 9
62 60 56 55 54 48 46 45 43 42 45 55 62 64 54 22 26 31 30 22 17 27 9 9 4 13 11 10 9 9 10 12 6 8 8 16 13 10 10 11 16 2 7 9 9 8 4
64 63 60 56 59 58 53 58 54 49 52 56 72 67 62 34 15 33 42 43 42 36 29 21 8 8 16 9 8 4 7 7 12 7 4 9 4 1 3 2 12 13 17 11 5 4 0
Wind_Direction_850mb
54 49 49 48 44 44 38 31 25 17 15 15 12 9 4 360 357 349 345 341 334 329 319 312 293 291 321 289 319 324 343 342 333 334 323 324 331 340 330 337 324 282 310 313 306 308 296
45 40 38 34 33 29 26 19 17 12 9 6 4 2 357 353 348 343 342 338 333 329 321 313 295 269 290 269 263 328 340 341 323 319 312 324 316 322 295 318 303 324 314 299 320 314 320
39 32 28 27 23 17 16 12 7 6 4 1 358 358 354 350 346 340 339 335 331 330 332 317 297 247 271 278 269 324 334 339 307 301 297 301 299 310 325 317 329 300 303 311 48 6 353
23 25 21 15 14 12 8 10 7 3 360 360 359 356 355 353 348 342 340 338 332 335 334 342 307 219 272 227 295 322 335 332 318 307 297 303 313 300 291 299 267 274 248 352 26 7 346
6 9 10 9 3 5 6 3 3 2 2 0 360 358 355 356 353 349 346 343 335 337 38 345 334 162 150 280 328 318 326 328 297 315 325 324 337 298 300 330 327 2 334 0 2 28 341
354 354 354 1 359 358 1 359 360 358 359 359 0 360 356 355 350 350 350 345 341 8 1 43 55 274 73 347 319 314 337 343 266 285 312 323 266 295 0 358 350 327 330 339 11 10 39
346 348 347 349 349 349 354 357 358 356 356 358 357 357 355 354 353 352 359 2 351 2 349 2 310 281 322 332 338 346 345 338 295 261 340 28 343 10 351 345 329 304 301 356 45 351 65
347 348 348 348 346 347 349 354 354 355 354 355 355 353 353 353 358 359 2 41 22 317 316 337 5 23 334 353 306 352 355 305 286 335 327 218 37 1 340 329 319 325 314 21 115 343 345
329 336 346 353 355 353 348 347 348 351 352 349 349 351 350 351 352 358 4 10 359 346 271 332 14 20 334 357 350 337 3 325 322 324 3 11 15 330 351 358 348 358 351 331 318 300 256
304 316 324 336 341 347 348 344 345 346 346 345 344 347 348 352 356 350 351 345 349 348 256 59 50 337 346 336 191 343 1 355 261 333 350 30 337 337 349 16 353 305 353 309 299 285 353
289 298 306 313 317 325 331 335 339 339 338 338 335 342 345 350 345 347 338 339 341 24 110 45 62 325 340 349 321 337 352 332 332 336 295 14 344 356 360 2 341 339 331 309 304 298 319
279 282 289 297 304 311 317 322 327 329 336 336 331 338 343 345 343 344 343 338 345 250 311 14 324 351 327 29 29 330 343 21 320 277 281 13 348 327 337 318 276 311 295 274 279 287 272
269 274 279 284 293 300 311 313 317 325 334 334 335 333 336 340 335 341 343 342 309 345 96 16 340 342 327 340 69 14 10 37 12 334 357 336 95 93 352 328 217 6 254 281 275 283 322
267 269 272 270 280 289 293 300 308 313 323 326 332 331 329 332 335 346 348 272 350 59 11 11 289 301 304 349 80 354 307 348 53 348 311 332 312 18 19 37 315 335 358 322 297 303 344
265 265 267 268 282 278 284 295 301 304 309 318 328 331 324 327 339 354 341 308 312 20 357 332 308 283 185 199 310 315 20 35 45 9 349 329 317 115 28 334 336 354 17 355 284 250 291
259 260 266 272 270 277 280 286 290 285 295 313 327 329 308 312 331 346 280 283 306 351 310 286 300 356 311 342 311 295 225 92 135 356 335 24 290 162 52 242 232 346 336 239 197 277 279
259 261 260 263 269 270 270 279 287 283 290 307 323 329 293 309 329 302 267 278 285 244 228 233 285 284 287 313 296 303 320 135 185 169 277 299 240 261 206 198 322 204 341 280 287 283 299
265 265 266 267 267 267 267 266 275 285 276 291 301 260 284 301 303 262 241 195 281 236 214 244 278 283 278 305 279 280 289 356 130 263 296 34 306 278 296 36 261 276 304 303 291 167 250
270 269 269 269 272 271 267 263 267 271 272 276 243 265 276 278 259 225 172 247 260 242 245 207 230 223 251 268 277 245 246 132 157 230 328 95 234 296 176 172 166 234 223 271 276 294 251
275 272 268 266 265 268 270 260 252 262 261 266 227 277 252 205 227 295 267 246 240 218 239 232 268 233 217 249 234 281 261 168 194 231 278 267 254 245 268 320 344 268 245 227 256 260 268
274 270 269 267 264 263 263 261 246 251 258 236 206 237 251 225 213 234 284 356 239 233 220 217 223 232 219 266 241 234 250 250 206 231 225 237 256 258 269 282 283 271 265 264 253 240 264
274 271 267 267 268 265 263 259 248 239 248 230 207 211 202 324 255 146 166 232 254 238 223 221 233 256 225 238 250 296 264 216 267 166 238 225 276 306 279 261 262 275 266 253 247 254 254
274 269 262 262 269 267 261 259 248 235 234 231 229 229 231 219 188 212 210 211 243 215 240 253 229 234 229 245 265 274 269 277 273 258 226 250 274 293 280 67 295 273 272 240 246 329 300
271 268 261 257 261 271 264 255 250 232 234 233 239 226 195 240 200 218 252 215 247 230 279 277 232 225 225 208 300 280 249 255 257 243 236 246 237 257 277 290 240 74 27 288 227 128 149
268 266 260 253 253 262 264 255 255 235 239 236 234 220 195 220 202 256 241 228 265 282 258 260 231 215 216 13 297 311 236 242 199 175 248 234 235 260 256 247 299 185 159 119 225 168 182
261 262 259 250 248 250 259 256 253 250 238 238 237 236 217 166 228 228 196 209 208 225 253 238 240 221 197 215 193 237 235 266 229 179 62 206 228 224 187 261 264 59 111 24 5 238 137
257 258 257 251 248 247 248 258 253 251 226 238 237 239 219 216 242 207 199 203 187 175 240 264 197 184 193 212 222 229 237 150 225 230 171 155 198 219 231 256 185 92 61 59 235 69 120
257 256 255 251 243 238 244 253 252 244 233 229 240 243 232 221 238 223 217 198 181 183 186 166 135 219 183 190 221 195 225 204 228 227 187 191 190 198 213 237 255 96 150 219 99 112 135
256 255 253 250 244 237 237 241 246 247 239 233 235 239 232 227 251 226 226 231 228 219 209 203 229 194 188 198 205 200 212 212 230 234 177 209 273 188 298 355 97 69 88 100 93 135 46